Weather History for North Padre Island, TX

Change the Weather History Date:

Friday, October 19, 2012

  Actual Average Record
Temperature  
Mean Temperature 80 °F -  
Max Temperature 80 °F - - ()
Min Temperature 80 °F - - ()
Cooling Degree Days 15    
Growing Degree Days 30 (Base 50)    
Moisture  
Dew Point 71 °F    
Average Humidity 72    
Maximum Humidity 89    
Minimum Humidity 61    
Precipitation  
Precipitation 0.00 in - - ()
Sea Level Pressure  
Sea Level Pressure 29.92 in    
Wind  
Wind Speed 16 mph (NE)    
Max Wind Speed 24 mph    
Max Gust Speed 28 mph    
Visibility 9 miles    
Events      
T = Trace of Precipitation, MM = Missing Value Source: NWS Daily Summary

Daily Weather History Graph

Daily Weather History Graph

Search for Another Location

Airport:

Trip Planner

Search our weather history database for the weather conditions in past years. The results will help you decide how hot, cold, wet, or windy it might be!

Date:

Astronomy

Oct. 19, 2012 Rise Set
Actual Time 7:29 AM CDT 6:55 PM CDT
Civil Twilight 7:06 AM CDT 7:18 PM CDT
Nautical Twilight 6:39 AM CDT 7:45 PM CDT
Astronomical Twilight 6:12 AM CDT 8:12 PM CDT
Moon 11:55 AM CDT (10/19) 10:52 PM CDT (10/19)
Length of Visible Light 12h 12m
Length of Day
11h 25m
Waxing Crescent, 24% of the Moon is Illuminated
Oct 19
Waxing Crescent
Oct 21
First Quarter
Oct 29
Full
Nov 6
Last Quarter
Nov 13
New

Hourly Weather History & Observations

Time (CDT) Temp. Heat Index Dew Point Humidity Pressure Visibility Wind Dir Wind Speed Gust Speed Precip Events Conditions
12:15 AM 80.6 °F 87.1 °F 77.0 °F 89% 29.86 in 5.0 mi NNE 12.7 mph - N/A   Mostly Cloudy
12:35 AM 80.6 °F 87.1 °F 77.0 °F 89% 29.86 in 6.0 mi NNE 16.1 mph - N/A   Overcast
12:55 AM 80.6 °F 87.1 °F 77.0 °F 89% 29.86 in 6.0 mi NNE 17.3 mph - N/A   Haze
1:15 AM 80.6 °F 87.1 °F 77.0 °F 89% 29.86 in 6.0 mi NNE 15.0 mph - N/A   Haze
1:35 AM 80.6 °F 87.1 °F 77.0 °F 89% 29.87 in 7.0 mi NNE 17.3 mph - N/A   Scattered Clouds
1:55 AM 80.6 °F 87.1 °F 77.0 °F 89% 29.87 in 7.0 mi NNE 16.1 mph 21.9 mph N/A   Partly Cloudy
2:15 AM 80.6 °F 87.1 °F 77.0 °F 89% 29.87 in - NNE 16.1 mph - N/A   Scattered Clouds
2:35 AM 80.6 °F 87.1 °F 77.0 °F 89% 29.87 in 7.0 mi NE 16.1 mph - N/A   Scattered Clouds
2:55 AM 80.6 °F 86.2 °F 75.2 °F 84% 29.87 in 7.0 mi NNE 12.7 mph - N/A   Clear
3:15 AM 80.6 °F 86.2 °F 75.2 °F 84% 29.87 in 7.0 mi NNE 8.1 mph 15.0 mph N/A   Partly Cloudy
3:55 AM 80.6 °F 86.2 °F 75.2 °F 84% 29.87 in 8.0 mi NNE 8.1 mph - N/A   Mostly Cloudy
4:15 AM 80.6 °F 86.2 °F 75.2 °F 84% 29.86 in 8.0 mi NNE 9.2 mph - N/A   Scattered Clouds
4:55 AM 80.6 °F 86.2 °F 75.2 °F 84% 29.87 in 8.0 mi NNE 8.1 mph 15.0 mph N/A   Mostly Cloudy
5:15 AM 80.6 °F 85.4 °F 73.4 °F 79% 29.88 in 10.0 mi NNE 10.4 mph 16.1 mph N/A   Overcast
5:35 AM 80.6 °F 84.6 °F 71.6 °F 74% 29.88 in 10.0 mi NNE 10.4 mph - N/A   Overcast
5:55 AM 80.6 °F 85.4 °F 73.4 °F 79% 29.88 in 10.0 mi NNE 10.4 mph 19.6 mph N/A   Scattered Clouds
6:15 AM 80.6 °F 84.6 °F 71.6 °F 74% 29.89 in 10.0 mi NNE 10.4 mph 18.4 mph N/A   Clear
6:35 AM 80.6 °F 84.6 °F 71.6 °F 74% 29.90 in 10.0 mi NNE 10.4 mph 21.9 mph N/A   Mostly Cloudy
6:55 AM 80.6 °F 84.6 °F 71.6 °F 74% 29.90 in 10.0 mi NNE 10.4 mph 18.4 mph N/A   Scattered Clouds
7:15 AM 80.6 °F 83.9 °F 69.8 °F 70% 29.90 in 10.0 mi NNE 16.1 mph 24.2 mph N/A   Partly Cloudy
7:35 AM 80.6 °F 83.9 °F 69.8 °F 70% 29.90 in 10.0 mi NNE 11.5 mph 25.3 mph N/A   Partly Cloudy
7:55 AM 80.6 °F 83.9 °F 69.8 °F 70% 29.91 in 10.0 mi NNE 20.7 mph - N/A   Clear
8:15 AM 80.6 °F 83.9 °F 69.8 °F 70% 29.92 in 10.0 mi NNE 16.1 mph 25.3 mph N/A   Clear
8:55 AM 80.6 °F 83.9 °F 69.8 °F 70% 29.93 in 10.0 mi NNE 15.0 mph 26.5 mph N/A   Clear
9:15 AM 80.6 °F 83.9 °F 69.8 °F 70% 29.94 in 10.0 mi NNE 23.0 mph - N/A   Clear
9:35 AM 80.6 °F 83.2 °F 68.0 °F 65% 29.96 in 10.0 mi NE 21.9 mph 27.6 mph N/A   Clear
9:55 AM 80.6 °F 83.2 °F 68.0 °F 65% 29.96 in 10.0 mi NNE 21.9 mph 27.6 mph N/A   Clear
10:15 AM 80.6 °F 83.9 °F 69.8 °F 70% 29.97 in 10.0 mi NE 21.9 mph 27.6 mph N/A   Clear
10:35 AM 80.6 °F 83.9 °F 69.8 °F 70% 29.98 in 10.0 mi NE 21.9 mph 27.6 mph N/A   Clear
10:55 AM 80.6 °F 83.9 °F 69.8 °F 70% 29.98 in 10.0 mi NE 24.2 mph - N/A   Clear
11:15 AM 80.6 °F 83.2 °F 68.0 °F 65% 29.98 in 10.0 mi NE 21.9 mph - N/A   Clear
11:35 AM 80.6 °F 83.9 °F 69.8 °F 70% 29.98 in 10.0 mi NE 21.9 mph - N/A   Clear
11:55 AM 80.6 °F 83.2 °F 68.0 °F 65% 29.98 in 10.0 mi NE 20.7 mph - N/A   Partly Cloudy
12:15 PM 80.6 °F 83.9 °F 69.8 °F 70% 29.98 in 10.0 mi NE 19.6 mph - N/A   Clear
12:55 PM 80.6 °F 83.9 °F 69.8 °F 70% 29.97 in 10.0 mi NE 18.4 mph - N/A   Clear
1:15 PM 80.6 °F 83.2 °F 68.0 °F 65% 29.96 in 10.0 mi NE 16.1 mph - N/A   Clear
1:35 PM 80.6 °F 83.2 °F 68.0 °F 65% 29.95 in 10.0 mi NE 20.7 mph - N/A   Clear
2:15 PM 80.6 °F 83.2 °F 68.0 °F 65% 29.94 in 10.0 mi NE 20.7 mph - N/A   Clear
2:35 PM 80.6 °F 83.2 °F 68.0 °F 65% 29.93 in 10.0 mi NE 20.7 mph - N/A   Partly Cloudy
2:55 PM 80.6 °F 83.2 °F 68.0 °F 65% 29.93 in 10.0 mi NE 17.3 mph - N/A   Partly Cloudy
3:15 PM 80.6 °F 83.2 °F 68.0 °F 65% 29.92 in 10.0 mi NE 18.4 mph - N/A   Clear
4:15 PM 80.6 °F 82.7 °F 66.2 °F 61% 29.92 in 10.0 mi NE 18.4 mph - N/A   Clear
4:35 PM 80.6 °F 82.7 °F 66.2 °F 61% 29.92 in 10.0 mi NE 19.6 mph - N/A   Clear
4:55 PM 80.6 °F 82.7 °F 66.2 °F 61% 29.91 in 10.0 mi NE 20.7 mph - N/A   Partly Cloudy
5:15 PM 80.6 °F 82.7 °F 66.2 °F 61% 29.91 in 10.0 mi NE 18.4 mph - N/A   Partly Cloudy
5:55 PM 80.6 °F 82.7 °F 66.2 °F 61% 29.91 in 10.0 mi NE 19.6 mph - N/A   Mostly Cloudy
6:15 PM 80.6 °F 82.7 °F 66.2 °F 61% 29.91 in - NE 18.4 mph - N/A   Overcast
6:55 PM 80.6 °F 82.7 °F 66.2 °F 61% 29.92 in 10.0 mi NE 17.3 mph - N/A   Overcast
7:15 PM 80.6 °F 82.7 °F 66.2 °F 61% 29.92 in 10.0 mi ENE 17.3 mph - N/A   Overcast
7:35 PM 80.6 °F 83.2 °F 68.0 °F 65% 29.92 in 10.0 mi ENE 18.4 mph - N/A   Overcast
7:55 PM 80.6 °F 83.2 °F 68.0 °F 65% 29.92 in 10.0 mi ENE 18.4 mph - N/A   Overcast
8:15 PM 80.6 °F 83.2 °F 68.0 °F 65% 29.93 in 10.0 mi ENE 17.3 mph - N/A   Mostly Cloudy
8:35 PM 80.6 °F 83.2 °F 68.0 °F 65% 29.92 in 10.0 mi ENE 17.3 mph - N/A   Scattered Clouds
9:15 PM 80.6 °F 83.2 °F 68.0 °F 65% 29.92 in 10.0 mi ENE 19.6 mph - N/A   Clear
9:35 PM 80.6 °F 83.9 °F 69.8 °F 70% 29.92 in 10.0 mi ENE 18.4 mph - N/A   Clear
9:55 PM 80.6 °F 83.9 °F 69.8 °F 70% 29.92 in 10.0 mi East 18.4 mph - N/A   Clear
10:15 PM 80.6 °F 83.9 °F 69.8 °F 70% 29.92 in 10.0 mi East 17.3 mph - N/A   Clear
10:55 PM 80.6 °F 83.9 °F 69.8 °F 70% 29.93 in 10.0 mi East 16.1 mph - N/A   Clear
11:15 PM 80.6 °F 83.9 °F 69.8 °F 70% 29.93 in 10.0 mi East 17.3 mph - N/A   Clear
11:35 PM 80.6 °F 83.9 °F 69.8 °F 70% 29.93 in 10.0 mi East 17.3 mph - N/A   Clear
11:55 PM 80.6 °F 83.9 °F 69.8 °F 70% 29.92 in 10.0 mi East 16.1 mph - N/A   Scattered Clouds